User: anonymous   Login
Location: Maiden_LMO
(35.5760°N, 81.2120°W)
Time: 13:30:08
(UTC-04:00)
Language:

ADEOS II - Orbit

View from above orbital plane
View from above orbital plane
View from above satellite
View from above satellite

Ground track
Ground track

The orbit data is extracted from the following two-line orbital elements,

1 27597U 02056A   15088.12278053  .00000443  00000-0  19881-3 0  9994
2 27597 098.2844 085.7965 0001370 132.8938 268.9799 14.27039352639736
Epoch (UTC): 29 March 2015 02:56:48
Eccentricity: 0.0001370
inclination: 98.2844°
perigee height: 800 km
apogee height: 802 km
right ascension of ascending node: 85.7965°
argument of perigee: 132.8938°
revolutions per day: 14.27039352
mean anomaly at epoch: 268.9799°
orbit number at epoch: 63973

The dashed part of the orbit path shows where the satellite is in the earth's shadow,  

DLR